Volver al catálogo

STARLINK-4711

ActivoComunicacionesVLEO
NORAD 53701·PAYLOAD·🇺🇸 United States

Lanzado Sep 5, 2022 desde Cape Canaveral Space Force Station

Loading…

Próximos Pases (próximas 24 horas)

TLE

ActualizadoSource: CelesTrak SupGP

Época: Sep 14, 2026, 21:51 UTC

1 53701C 22107B   26257.91090278  .00679480  00000+0  19989-1 0  2573
2 53701  53.1592 111.5510 0001341  87.4437 339.6814 15.34187241    10

Sigue STARLINK-4711 en tiempo real con AllMySat

Download on the App Store